Time,TemperatureF,DewpointF,PressureIn,WindDirection,WindDirectionDegrees,WindSpeedMPH,WindSpeedGustMPH,Humidity,HourlyPrecipIn,Conditions,Clouds,dailyrainin,SoftwareType,DateUTC
2015-06-02 00:01:00,45.8,44.2,30.01,ESE,117,0.0,0.0,94,0.00,RA,,0.00,WeatherDisplay:10.37,2015-06-02 04:01:00,
2015-06-02 00:06:00,45.8,44.2,30.01,NNE,13,0.0,0.0,94,0.00,RA,,0.00,WeatherDisplay:10.37,2015-06-02 04:06:00,
2015-06-02 00:11:00,45.8,44.2,30.01,ESE,107,0.0,0.0,94,0.00,CLR,,0.00,WeatherDisplay:10.37,2015-06-02 04:11:00,
2015-06-02 00:16:00,45.8,44.2,30.01,ESE,107,0.0,0.0,94,0.00,CLR,,0.00,WeatherDisplay:10.37,2015-06-02 04:16:00,
2015-06-02 00:21:00,45.8,44.2,30.01,ESE,109,0.0,0.0,94,0.00,CLR,,0.00,WeatherDisplay:10.37,2015-06-02 04:21:00,
2015-06-02 00:26:00,45.7,44.1,30.02,ESE,109,0.0,0.0,94,0.00,CLR,,0.00,WeatherDisplay:10.37,2015-06-02 04:26:00,
2015-06-02 00:31:00,45.7,44.1,30.02,ESE,109,0.0,0.0,94,0.00,CLR,,0.00,WeatherDisplay:10.37,2015-06-02 04:31:00,
2015-06-02 00:36:00,45.8,44.2,30.02,NNE,30,0.0,0.0,94,0.00,CLR,,0.00,WeatherDisplay:10.37,2015-06-02 04:36:00,
2015-06-02 00:41:00,45.8,44.2,30.01,NNE,30,0.0,0.0,94,0.00,CLR,,0.00,WeatherDisplay:10.37,2015-06-02 04:41:00,
2015-06-02 00:46:00,45.8,44.2,30.01,NNE,32,0.0,0.0,94,0.00,CLR,,0.00,WeatherDisplay:10.37,2015-06-02 04:46:00,
2015-06-02 00:51:00,45.8,44.2,30.01,NE,35,0.0,0.0,94,0.00,CLR,,0.00,WeatherDisplay:10.37,2015-06-02 04:51:00,
2015-06-02 00:56:00,45.8,44.2,30.01,ENE,62,0.0,0.0,94,0.00,CLR,,0.00,WeatherDisplay:10.37,2015-06-02 04:56:00,
2015-06-02 01:01:00,45.8,44.2,30.00,ESE,123,0.0,2.0,94,0.00,CLR,,0.00,WeatherDisplay:10.37,2015-06-02 05:01:00,
2015-06-02 01:06:00,45.8,44.2,30.00,ENE,66,0.1,2.3,94,0.00,CLR,,0.00,WeatherDisplay:10.37,2015-06-02 05:06:00,
2015-06-02 01:11:00,45.8,44.2,30.00,ENE,72,0.0,0.0,94,0.00,CLR,,0.00,WeatherDisplay:10.37,2015-06-02 05:11:00,
2015-06-02 01:16:00,45.8,44.2,30.00,ENE,72,0.0,0.0,94,0.00,CLR,,0.00,WeatherDisplay:10.37,2015-06-02 05:16:00,
2015-06-02 01:21:00,45.8,44.2,30.00,ENE,72,0.0,0.0,94,0.00,CLR,,0.00,WeatherDisplay:10.37,2015-06-02 05:21:00,
2015-06-02 01:26:00,45.8,44.2,30.00,East,82,0.0,0.0,94,0.00,CLR,,0.00,WeatherDisplay:10.37,2015-06-02 05:26:00,
2015-06-02 01:31:00,45.8,44.2,30.00,NE,55,0.0,0.0,94,0.00,CLR,,0.00,WeatherDisplay:10.37,2015-06-02 05:31:00,
2015-06-02 01:36:00,45.7,44.1,30.00,NE,55,0.0,0.0,94,0.00,CLR,,0.00,WeatherDisplay:10.37,2015-06-02 05:36:00,
2015-06-02 01:41:00,45.7,44.1,29.99,NE,55,0.0,0.0,94,0.00,CLR,,0.00,WeatherDisplay:10.37,2015-06-02 05:41:00,
2015-06-02 01:46:00,45.7,44.1,29.99,ENE,58,0.0,0.0,94,0.00,CLR,,0.00,WeatherDisplay:10.37,2015-06-02 05:46:00,
2015-06-02 01:51:00,45.7,44.1,30.00,North,1,0.0,0.0,94,0.00,CLR,,0.00,WeatherDisplay:10.37,2015-06-02 05:51:00,
2015-06-02 01:56:00,45.5,43.9,29.99,North,0,0.0,0.0,94,0.00,CLR,,0.00,WeatherDisplay:10.37,2015-06-02 05:56:00,
2015-06-02 02:01:00,45.5,43.9,29.99,North,0,0.0,0.0,94,0.00,CLR,,0.00,WeatherDisplay:10.37,2015-06-02 06:01:00,
2015-06-02 02:06:00,45.5,43.9,29.99,North,0,0.0,0.0,94,0.00,CLR,,0.00,WeatherDisplay:10.37,2015-06-02 06:06:00,
2015-06-02 02:11:00,45.5,43.9,29.99,North,10,0.0,0.0,94,0.00,CLR,,0.00,WeatherDisplay:10.37,2015-06-02 06:11:00,
2015-06-02 02:16:00,45.4,43.8,29.99,North,10,0.0,0.0,94,0.00,CLR,,0.00,WeatherDisplay:10.37,2015-06-02 06:16:00,
2015-06-02 02:21:00,45.4,43.8,29.99,North,10,0.0,0.0,94,0.00,CLR,,0.00,WeatherDisplay:10.37,2015-06-02 06:21:00,
2015-06-02 02:26:00,45.4,43.8,29.98,North,10,0.0,0.0,94,0.00,CLR,,0.00,WeatherDisplay:10.37,2015-06-02 06:26:00,
2015-06-02 02:31:00,45.4,43.8,29.99,North,10,0.0,0.0,94,0.00,CLR,,0.00,WeatherDisplay:10.37,2015-06-02 06:31:00,
2015-06-02 02:36:00,45.4,43.8,29.98,ESE,117,0.0,0.0,94,0.00,CLR,,0.00,WeatherDisplay:10.37,2015-06-02 06:36:00,
2015-06-02 02:41:00,45.4,43.8,29.99,ESE,116,0.0,0.0,94,0.00,CLR,,0.00,WeatherDisplay:10.37,2015-06-02 06:41:00,
2015-06-02 02:46:00,45.4,43.8,29.98,NNE,32,0.0,0.0,94,0.00,CLR,,0.00,WeatherDisplay:10.37,2015-06-02 06:46:00,
2015-06-02 02:51:00,45.2,43.6,29.98,East,100,0.0,2.0,94,0.00,CLR,,0.00,WeatherDisplay:10.37,2015-06-02 06:51:00,
2015-06-02 02:56:00,45.2,43.6,29.98,East,95,0.0,0.0,94,0.00,CLR,,0.00,WeatherDisplay:10.37,2015-06-02 06:56:00,
2015-06-02 03:01:00,45.2,43.6,29.98,East,95,0.0,0.0,94,0.00,CLR,,0.00,WeatherDisplay:10.37,2015-06-02 07:01:00,
2015-06-02 03:06:00,45.2,43.6,29.98,East,95,0.0,0.0,94,0.00,CLR,,0.00,WeatherDisplay:10.37,2015-06-02 07:06:00,
2015-06-02 03:16:00,45.2,43.6,29.97,East,95,0.0,0.0,94,0.00,CLR,,0.00,WeatherDisplay:10.37,2015-06-02 07:16:00,
2015-06-02 03:21:00,45.2,43.6,29.97,East,95,0.0,0.0,94,0.00,CLR,,0.00,WeatherDisplay:10.37,2015-06-02 07:21:00,
2015-06-02 03:26:00,45.2,43.6,29.97,East,95,0.0,0.0,94,0.00,CLR,,0.00,WeatherDisplay:10.37,2015-06-02 07:26:00,
2015-06-02 03:31:00,45.2,43.6,29.97,East,95,0.0,0.0,94,0.00,CLR,,0.00,WeatherDisplay:10.37,2015-06-02 07:31:00,
2015-06-02 03:36:00,45.2,43.6,29.97,East,96,0.0,0.0,94,0.00,CLR,,0.00,WeatherDisplay:10.37,2015-06-02 07:36:00,
2015-06-02 03:41:00,45.2,43.6,29.97,East,96,0.0,0.0,94,0.00,CLR,,0.00,WeatherDisplay:10.37,2015-06-02 07:41:00,
2015-06-02 03:46:00,45.1,43.5,29.97,East,96,0.0,0.0,94,0.00,CLR,,0.00,WeatherDisplay:10.37,2015-06-02 07:46:00,
2015-06-02 03:51:00,45.1,43.5,29.97,East,96,0.0,0.0,94,0.00,CLR,,0.00,WeatherDisplay:10.37,2015-06-02 07:51:00,
2015-06-02 03:56:00,45.1,43.5,29.97,East,96,0.0,0.0,94,0.00,CLR,,0.00,WeatherDisplay:10.37,2015-06-02 07:56:00,
2015-06-02 04:01:00,45.1,43.5,29.97,East,96,0.0,0.0,94,0.00,CLR,,0.00,WeatherDisplay:10.37,2015-06-02 08:01:00,
2015-06-02 04:06:00,45.1,43.5,29.96,NE,38,0.0,0.0,94,0.00,CLR,,0.00,WeatherDisplay:10.37,2015-06-02 08:06:00,
2015-06-02 04:11:00,45.1,43.5,29.96,NE,38,0.0,0.0,94,0.00,CLR,,0.00,WeatherDisplay:10.37,2015-06-02 08:11:00,
2015-06-02 04:16:00,45.1,43.5,29.96,NE,38,0.0,0.0,94,0.00,CLR,,0.00,WeatherDisplay:10.37,2015-06-02 08:16:00,
2015-06-02 04:21:00,45.1,43.5,29.96,NE,38,0.0,0.0,94,0.00,CLR,,0.00,WeatherDisplay:10.37,2015-06-02 08:21:00,
2015-06-02 04:26:00,45.1,43.5,29.96,NE,38,0.0,0.0,94,0.00,CLR,,0.00,WeatherDisplay:10.37,2015-06-02 08:26:00,
2015-06-02 04:31:00,45.1,43.5,29.96,NE,38,0.0,0.0,94,0.00,CLR,,0.00,WeatherDisplay:10.37,2015-06-02 08:31:00,
2015-06-02 04:36:00,45.1,43.5,29.96,North,2,0.0,0.0,94,0.00,CLR,,0.00,WeatherDisplay:10.37,2015-06-02 08:36:00,
2015-06-02 04:41:00,45.1,43.5,29.96,North,356,0.0,0.0,94,0.00,CLR,,0.00,WeatherDisplay:10.37,2015-06-02 08:41:00,
2015-06-02 04:46:00,45.1,43.5,29.96,North,356,0.0,0.0,94,0.00,CLR,,0.00,WeatherDisplay:10.37,2015-06-02 08:46:00,
2015-06-02 04:51:00,44.9,43.3,29.96,North,356,0.0,0.0,94,0.00,CLR,,0.00,WeatherDisplay:10.37,2015-06-02 08:51:00,
2015-06-02 04:56:00,44.9,43.3,29.96,North,356,0.0,0.0,94,0.00,CLR,,0.00,WeatherDisplay:10.37,2015-06-02 08:56:00,
2015-06-02 05:01:00,44.9,43.3,29.96,North,350,0.0,2.3,94,0.00,CLR,,0.00,WeatherDisplay:10.37,2015-06-02 09:01:00,
2015-06-02 05:06:00,44.9,43.3,29.96,North,350,0.0,0.0,94,0.00,CLR,,0.00,WeatherDisplay:10.37,2015-06-02 09:06:00,
2015-06-02 05:11:00,44.9,43.3,29.96,North,350,0.0,0.0,94,0.00,CLR,,0.00,WeatherDisplay:10.37,2015-06-02 09:11:00,
2015-06-02 05:16:00,44.9,43.3,29.96,North,350,0.0,0.0,94,0.00,CLR,,0.00,WeatherDisplay:10.37,2015-06-02 09:16:00,
2015-06-02 05:21:00,44.9,43.3,29.96,NNW,344,0.1,2.3,94,0.00,CLR,,0.00,WeatherDisplay:10.37,2015-06-02 09:21:00,
2015-06-02 05:27:00,44.9,43.3,29.96,North,359,0.0,0.0,94,0.00,CLR,,0.00,WeatherDisplay:10.37,2015-06-02 09:27:00,
2015-06-02 05:32:00,44.9,43.3,29.96,North,359,0.0,0.0,94,0.00,CLR,,0.00,WeatherDisplay:10.37,2015-06-02 09:32:00,
2015-06-02 05:37:00,44.9,43.3,29.96,North,359,0.0,0.0,94,0.00,CLR,,0.00,WeatherDisplay:10.37,2015-06-02 09:37:00,
2015-06-02 05:42:00,44.9,43.3,29.96,North,359,0.0,0.0,94,0.00,CLR,,0.00,WeatherDisplay:10.37,2015-06-02 09:42:00,
2015-06-02 05:47:00,44.9,43.3,29.96,North,359,0.0,0.0,94,0.00,CLR,,0.00,WeatherDisplay:10.37,2015-06-02 09:47:00,
2015-06-02 05:52:00,44.9,43.3,29.96,North,359,0.0,0.0,94,0.00,CLR,,0.00,WeatherDisplay:10.37,2015-06-02 09:52:00,
2015-06-02 05:57:00,44.9,43.3,29.96,North,359,0.0,0.0,94,0.00,CLR,,0.00,WeatherDisplay:10.37,2015-06-02 09:57:00,
2015-06-02 06:02:00,44.9,43.3,29.96,North,359,0.0,1.2,94,0.00,CLR,,0.00,WeatherDisplay:10.37,2015-06-02 10:02:00,
2015-06-02 06:07:00,44.9,43.3,29.96,North,359,0.0,0.0,94,0.00,CLR,,0.00,WeatherDisplay:10.37,2015-06-02 10:07:00,
2015-06-02 06:12:00,44.9,43.3,29.96,North,359,0.0,0.0,94,0.00,CLR,,0.00,WeatherDisplay:10.37,2015-06-02 10:12:00,
2015-06-02 06:17:00,44.9,43.3,29.97,North,359,0.0,0.0,94,0.00,CLR,,0.00,WeatherDisplay:10.37,2015-06-02 10:17:00,
2015-06-02 06:22:00,44.9,43.3,29.97,North,359,0.0,0.0,94,0.00,CLR,,0.00,WeatherDisplay:10.37,2015-06-02 10:22:00,
2015-06-02 06:27:00,44.9,43.3,29.97,North,359,0.0,0.0,94,0.00,CLR,,0.00,WeatherDisplay:10.37,2015-06-02 10:27:00,
2015-06-02 06:32:00,44.9,43.3,29.97,North,359,0.0,0.0,94,0.00,CLR,,0.00,WeatherDisplay:10.37,2015-06-02 10:32:00,
2015-06-02 06:37:00,44.9,43.3,29.97,North,359,0.0,0.0,94,0.00,CLR,,0.00,WeatherDisplay:10.37,2015-06-02 10:37:00,
2015-06-02 06:42:00,44.9,43.3,29.96,North,359,0.0,0.0,94,0.00,CLR,,0.00,WeatherDisplay:10.37,2015-06-02 10:42:00,
2015-06-02 06:47:00,44.9,43.3,29.96,North,359,0.0,0.0,94,0.00,CLR,,0.00,WeatherDisplay:10.37,2015-06-02 10:47:00,
2015-06-02 06:52:00,44.9,43.3,29.97,North,359,0.2,2.3,94,0.00,CLR,,0.00,WeatherDisplay:10.37,2015-06-02 10:52:00,
2015-06-02 06:57:00,45.1,43.5,29.97,East,99,0.0,0.0,94,0.00,CLR,,0.00,WeatherDisplay:10.37,2015-06-02 10:57:00,
2015-06-02 07:02:00,45.1,43.5,29.98,East,97,0.0,0.0,94,0.00,CLR,,0.00,WeatherDisplay:10.37,2015-06-02 11:02:00,
2015-06-02 07:07:00,45.1,43.5,29.98,East,97,0.0,0.0,94,0.00,CLR,,0.00,WeatherDisplay:10.37,2015-06-02 11:07:00,
2015-06-02 07:12:00,45.1,43.5,29.97,East,97,0.0,0.0,94,0.00,CLR,,0.00,WeatherDisplay:10.37,2015-06-02 11:12:00,
2015-06-02 07:17:00,45.2,43.6,29.98,East,97,0.0,0.0,94,0.00,CLR,,0.00,WeatherDisplay:10.37,2015-06-02 11:17:00,
2015-06-02 07:22:00,45.2,43.6,29.97,East,97,0.0,0.0,94,0.00,CLR,,0.00,WeatherDisplay:10.37,2015-06-02 11:22:00,
2015-06-02 07:27:00,45.2,43.6,29.97,East,97,0.0,0.0,94,0.00,CLR,,0.00,WeatherDisplay:10.37,2015-06-02 11:27:00,
2015-06-02 07:32:00,45.4,44.1,29.97,East,97,0.0,0.0,95,0.00,CLR,,0.00,WeatherDisplay:10.37,2015-06-02 11:32:00,
2015-06-02 07:37:00,45.4,43.8,29.97,East,97,0.0,0.0,94,0.00,CLR,,0.00,WeatherDisplay:10.37,2015-06-02 11:37:00,
2015-06-02 07:42:00,45.5,44.2,29.97,East,97,0.0,0.0,95,0.00,CLR,,0.00,WeatherDisplay:10.37,2015-06-02 11:42:00,
2015-06-02 07:47:00,45.5,44.2,29.96,East,97,0.0,0.0,95,0.00,CLR,,0.00,WeatherDisplay:10.37,2015-06-02 11:47:00,
2015-06-02 07:52:00,45.7,44.4,29.96,East,97,0.0,0.0,95,0.00,CLR,,0.00,WeatherDisplay:10.37,2015-06-02 11:52:00,
2015-06-02 07:57:00,45.7,44.4,29.97,East,97,0.0,0.0,95,0.00,CLR,,0.00,WeatherDisplay:10.37,2015-06-02 11:57:00,
2015-06-02 08:02:00,45.8,44.4,29.97,East,86,0.0,0.0,95,0.00,CLR,,0.00,WeatherDisplay:10.37,2015-06-02 12:02:00,
2015-06-02 08:07:00,45.8,44.4,29.97,ESE,109,0.0,0.0,95,0.00,CLR,,0.00,WeatherDisplay:10.37,2015-06-02 12:07:00,
2015-06-02 08:12:00,45.8,44.4,29.96,ESE,109,0.0,0.0,95,0.00,CLR,,0.00,WeatherDisplay:10.37,2015-06-02 12:12:00,
2015-06-02 08:17:00,46.0,44.6,29.96,ESE,106,0.0,0.0,95,0.00,CLR,,0.00,WeatherDisplay:10.37,2015-06-02 12:17:00,
2015-06-02 08:22:00,46.0,44.6,29.96,ESE,104,0.0,0.0,95,0.00,CLR,,0.00,WeatherDisplay:10.37,2015-06-02 12:22:00,
2015-06-02 08:27:00,46.1,44.7,29.96,NNW,340,0.0,0.0,95,0.00,CLR,,0.00,WeatherDisplay:10.37,2015-06-02 12:27:00,
2015-06-02 08:32:00,46.1,44.7,29.96,NNW,339,0.0,0.0,95,0.00,CLR,,0.00,WeatherDisplay:10.37,2015-06-02 12:32:00,
2015-06-02 08:37:00,46.1,44.7,29.96,NNW,339,0.0,0.0,95,0.00,CLR,,0.00,WeatherDisplay:10.37,2015-06-02 12:37:00,
2015-06-02 08:42:00,46.2,44.8,29.96,NNW,339,0.0,0.0,95,0.00,CLR,,0.00,WeatherDisplay:10.37,2015-06-02 12:42:00,
2015-06-02 08:47:00,46.2,44.8,29.96,East,79,0.0,0.0,95,0.00,CLR,,0.00,WeatherDisplay:10.37,2015-06-02 12:47:00,
2015-06-02 08:52:00,46.4,45.0,29.96,NNE,30,0.0,0.0,95,0.00,CLR,,0.00,WeatherDisplay:10.37,2015-06-02 12:52:00,
2015-06-02 09:02:00,46.5,45.1,29.96,ESE,121,0.0,0.0,95,0.00,CLR,,0.00,WeatherDisplay:10.37,2015-06-02 13:02:00,
2015-06-02 09:07:00,46.5,45.1,29.96,East,86,0.0,0.0,95,0.00,CLR,,0.00,WeatherDisplay:10.37,2015-06-02 13:07:00,
2015-06-02 09:12:00,46.5,45.1,29.96,North,353,0.0,0.0,95,0.00,CLR,,0.00,WeatherDisplay:10.37,2015-06-02 13:12:00,
2015-06-02 09:17:00,46.5,45.1,29.96,South,178,0.0,0.0,95,0.00,CLR,,0.00,WeatherDisplay:10.37,2015-06-02 13:17:00,
2015-06-02 09:22:00,46.5,45.1,29.97,NNW,346,1.0,4.6,95,0.00,CLR,,0.00,WeatherDisplay:10.37,2015-06-02 13:22:00,
2015-06-02 09:32:00,46.5,45.1,29.97,NNW,347,0.0,0.0,95,0.00,CLR,,0.00,WeatherDisplay:10.37,2015-06-02 13:32:00,
2015-06-02 09:42:00,46.7,45.3,29.97,East,82,0.0,0.0,95,0.00,CLR,,0.00,WeatherDisplay:10.37,2015-06-02 13:42:00,
2015-06-02 09:47:00,46.8,45.4,29.96,East,95,0.0,0.0,95,0.00,CLR,,0.00,WeatherDisplay:10.37,2015-06-02 13:47:00,
2015-06-02 09:52:00,47.0,45.6,29.96,East,90,0.0,0.0,95,0.00,CLR,,0.00,WeatherDisplay:10.37,2015-06-02 13:52:00,
2015-06-02 09:57:00,47.0,45.6,29.96,NNW,339,0.0,0.0,95,0.00,CLR,,0.00,WeatherDisplay:10.37,2015-06-02 13:57:00,
2015-06-02 10:02:00,47.0,45.6,29.96,East,86,0.0,0.0,95,0.00,CLR,,0.00,WeatherDisplay:10.37,2015-06-02 14:02:00,
2015-06-02 10:07:00,47.1,45.7,29.96,NNE,17,0.0,0.0,95,0.00,CLR,,0.00,WeatherDisplay:10.37,2015-06-02 14:07:00,
2015-06-02 10:12:00,47.1,45.7,29.96,NW,323,0.0,0.0,95,0.00,CLR,,0.00,WeatherDisplay:10.37,2015-06-02 14:12:00,
2015-06-02 10:17:00,47.4,46.0,29.96,West,281,0.0,0.0,95,0.00,CLR,,0.00,WeatherDisplay:10.37,2015-06-02 14:17:00,
2015-06-02 10:22:00,47.6,46.2,29.96,East,86,0.0,0.0,95,0.00,CLR,,0.00,WeatherDisplay:10.37,2015-06-02 14:22:00,
2015-06-02 10:27:00,47.6,46.2,29.96,NE,51,0.0,0.0,95,0.00,CLR,,0.00,WeatherDisplay:10.37,2015-06-02 14:27:00,
2015-06-02 10:32:00,47.3,45.9,29.96,SE,136,0.0,0.0,95,0.00,CLR,,0.00,WeatherDisplay:10.37,2015-06-02 14:32:00,
2015-06-02 10:37:00,47.3,45.9,29.96,ESE,117,0.0,0.0,95,0.00,CLR,,0.00,WeatherDisplay:10.37,2015-06-02 14:37:00,
2015-06-02 10:42:00,47.3,45.9,29.96,ESE,113,0.0,0.0,95,0.00,CLR,,0.00,WeatherDisplay:10.37,2015-06-02 14:42:00,
2015-06-02 10:47:00,47.3,45.9,29.96,North,0,0.0,0.0,95,0.00,CLR,,0.00,WeatherDisplay:10.37,2015-06-02 14:47:00,
2015-06-02 10:53:00,47.3,45.9,29.96,North,0,0.0,0.0,95,0.00,CLR,,0.00,WeatherDisplay:10.37,2015-06-02 14:53:00,
2015-06-02 10:58:00,47.3,45.9,29.97,NE,44,0.0,0.0,95,0.00,CLR,,0.00,WeatherDisplay:10.37,2015-06-02 14:58:00,
2015-06-02 11:03:00,47.3,45.9,29.97,East,96,0.1,2.3,95,0.00,CLR,,0.00,WeatherDisplay:10.37,2015-06-02 15:03:00,
2015-06-02 11:08:00,47.4,46.0,29.97,East,90,0.0,0.0,95,0.00,CLR,,0.00,WeatherDisplay:10.37,2015-06-02 15:08:00,
2015-06-02 11:13:00,47.7,46.3,29.97,ENE,65,0.0,0.0,95,0.00,CLR,,0.00,WeatherDisplay:10.37,2015-06-02 15:13:00,
2015-06-02 11:18:00,48.2,46.8,29.97,ESE,104,0.3,2.3,95,0.00,CLR,,0.00,WeatherDisplay:10.37,2015-06-02 15:18:00,
2015-06-02 11:23:00,48.2,46.8,29.97,East,85,0.2,1.0,95,0.00,CLR,,0.00,WeatherDisplay:10.37,2015-06-02 15:23:00,
2015-06-02 11:28:00,48.0,46.6,29.97,NNW,347,0.0,0.0,95,0.00,CLR,,0.00,WeatherDisplay:10.37,2015-06-02 15:28:00,
2015-06-02 11:33:00,47.7,46.3,29.98,ENE,59,0.0,0.0,95,0.00,CLR,,0.00,WeatherDisplay:10.37,2015-06-02 15:33:00,
2015-06-02 11:38:00,47.4,46.0,29.98,ENE,59,0.0,0.0,95,0.00,CLR,,0.00,WeatherDisplay:10.37,2015-06-02 15:38:00,
2015-06-02 11:43:00,47.4,46.0,29.98,ENE,59,0.0,0.0,95,0.00,CLR,,0.00,WeatherDisplay:10.37,2015-06-02 15:43:00,
2015-06-02 11:48:00,47.3,45.9,29.98,ENE,59,0.0,0.0,95,0.00,CLR,,0.00,WeatherDisplay:10.37,2015-06-02 15:48:00,
2015-06-02 11:53:00,47.3,45.9,29.98,ENE,59,0.0,0.0,95,0.00,CLR,,0.00,WeatherDisplay:10.37,2015-06-02 15:53:00,
2015-06-02 12:03:00,47.4,46.0,29.98,ENE,59,0.0,0.0,95,0.01,RA,,0.01,WeatherDisplay:10.37,2015-06-02 16:03:00,
2015-06-02 12:08:00,47.4,46.0,29.98,ESE,119,0.0,0.0,95,0.01,,,0.01,WeatherDisplay:10.37,2015-06-02 16:08:00,
2015-06-02 12:13:00,47.6,46.2,29.97,ESE,119,0.0,0.0,95,0.01,CLR,,0.01,WeatherDisplay:10.37,2015-06-02 16:13:00,
2015-06-02 12:18:00,47.7,46.3,29.97,ESE,112,0.0,0.0,95,0.01,CLR,,0.01,WeatherDisplay:10.37,2015-06-02 16:18:00,
2015-06-02 12:23:00,47.9,46.5,29.97,ESE,112,0.0,0.0,95,0.01,CLR,,0.01,WeatherDisplay:10.37,2015-06-02 16:23:00,
2015-06-02 12:28:00,47.9,46.5,29.97,East,80,0.0,0.0,95,0.01,CLR,,0.01,WeatherDisplay:10.37,2015-06-02 16:28:00,
2015-06-02 12:33:00,48.2,46.8,29.97,East,88,0.0,0.0,95,0.01,CLR,,0.01,WeatherDisplay:10.37,2015-06-02 16:33:00,
2015-06-02 12:38:00,48.3,46.9,29.97,ENE,64,0.0,0.0,95,0.01,CLR,,0.01,WeatherDisplay:10.37,2015-06-02 16:38:00,
2015-06-02 12:43:00,48.6,47.2,29.97,SE,134,0.0,0.0,95,0.01,CLR,,0.01,WeatherDisplay:10.37,2015-06-02 16:43:00,
2015-06-02 12:48:00,48.8,47.4,29.97,SE,137,0.5,2.3,95,0.01,CLR,,0.01,WeatherDisplay:10.37,2015-06-02 16:48:00,
2015-06-02 12:53:00,48.6,47.2,29.97,SE,137,0.0,0.0,95,0.01,CLR,,0.01,WeatherDisplay:10.37,2015-06-02 16:53:00,
2015-06-02 12:58:00,48.5,47.1,29.97,SE,137,0.0,0.0,95,0.01,CLR,,0.01,WeatherDisplay:10.37,2015-06-02 16:58:00,
2015-06-02 13:03:00,48.2,46.8,29.97,NE,44,0.0,1.2,95,0.00,CLR,,0.01,WeatherDisplay:10.37,2015-06-02 17:03:00,
2015-06-02 13:08:00,48.2,46.6,29.97,SE,131,0.0,0.0,94,0.00,CLR,,0.01,WeatherDisplay:10.37,2015-06-02 17:08:00,
2015-06-02 13:13:00,48.0,46.4,29.97,SE,131,0.0,0.0,94,0.00,CLR,,0.01,WeatherDisplay:10.37,2015-06-02 17:13:00,
2015-06-02 13:18:00,48.0,46.6,29.97,SE,128,0.0,0.0,95,0.00,CLR,,0.01,WeatherDisplay:10.37,2015-06-02 17:18:00,
2015-06-02 13:23:00,48.0,46.6,29.97,SE,128,0.0,0.0,95,0.00,CLR,,0.01,WeatherDisplay:10.37,2015-06-02 17:23:00,
2015-06-02 13:28:00,48.2,46.8,29.97,SE,128,0.0,0.0,95,0.00,CLR,,0.01,WeatherDisplay:10.37,2015-06-02 17:28:00,
2015-06-02 13:33:00,48.3,46.9,29.97,NE,41,0.0,0.0,95,0.00,CLR,,0.01,WeatherDisplay:10.37,2015-06-02 17:33:00,
2015-06-02 13:38:00,48.5,47.1,29.97,ENE,64,0.0,0.0,95,0.00,CLR,,0.01,WeatherDisplay:10.37,2015-06-02 17:38:00,
2015-06-02 13:43:00,49.6,48.2,29.97,NE,42,0.0,0.0,95,0.00,CLR,,0.01,WeatherDisplay:10.37,2015-06-02 17:43:00,
2015-06-02 13:48:00,49.6,48.2,29.97,NE,49,0.0,0.0,95,0.00,CLR,,0.01,WeatherDisplay:10.37,2015-06-02 17:48:00,
2015-06-02 13:53:00,49.6,48.2,29.97,ENE,65,0.0,0.0,95,0.00,CLR,,0.01,WeatherDisplay:10.37,2015-06-02 17:53:00,
2015-06-02 13:58:00,49.5,48.1,29.97,East,83,0.0,0.0,95,0.00,CLR,,0.01,WeatherDisplay:10.37,2015-06-02 17:58:00,
2015-06-02 14:03:00,49.2,47.8,29.96,NE,52,0.0,0.0,95,0.00,CLR,,0.01,WeatherDisplay:10.37,2015-06-02 18:03:00,
2015-06-02 14:08:00,49.1,47.7,29.96,ENE,58,0.0,0.0,95,0.00,CLR,,0.01,WeatherDisplay:10.37,2015-06-02 18:08:00,
2015-06-02 14:13:00,48.9,47.5,29.97,NE,56,0.0,0.0,95,0.00,CLR,,0.01,WeatherDisplay:10.37,2015-06-02 18:13:00,
2015-06-02 14:18:00,48.9,47.5,29.96,NNW,346,0.0,0.0,95,0.00,CLR,,0.01,WeatherDisplay:10.37,2015-06-02 18:18:00,
2015-06-02 14:23:00,48.9,47.5,29.96,NNW,346,0.0,0.0,95,0.00,CLR,,0.01,WeatherDisplay:10.37,2015-06-02 18:23:00,
2015-06-02 14:28:00,48.9,47.5,29.96,NNW,346,0.0,0.0,95,0.00,CLR,,0.01,WeatherDisplay:10.37,2015-06-02 18:28:00,
2015-06-02 14:33:00,48.9,47.5,29.96,NNW,342,0.0,0.0,95,0.00,CLR,,0.01,WeatherDisplay:10.37,2015-06-02 18:33:00,
2015-06-02 14:38:00,48.8,47.4,29.96,NNW,342,0.0,0.0,95,0.00,CLR,,0.01,WeatherDisplay:10.37,2015-06-02 18:38:00,
2015-06-02 14:43:00,48.8,47.4,29.96,NNW,342,0.0,0.0,95,0.00,CLR,,0.01,WeatherDisplay:10.37,2015-06-02 18:43:00,
2015-06-02 14:53:00,48.6,47.0,29.95,NNW,342,0.0,0.0,94,0.00,CLR,,0.01,WeatherDisplay:10.37,2015-06-02 18:53:00,
2015-06-02 14:58:00,48.6,47.2,29.96,NNW,336,0.0,2.3,95,0.00,CLR,,0.01,WeatherDisplay:10.37,2015-06-02 18:58:00,
2015-06-02 15:03:00,48.9,47.5,29.95,NNW,336,0.0,0.0,95,0.00,CLR,,0.01,WeatherDisplay:10.37,2015-06-02 19:03:00,
2015-06-02 15:08:00,49.1,47.7,29.95,ESE,120,0.0,2.3,95,0.00,CLR,,0.01,WeatherDisplay:10.37,2015-06-02 19:08:00,
2015-06-02 15:13:00,49.1,47.7,29.95,NE,40,0.0,0.0,95,0.00,CLR,,0.01,WeatherDisplay:10.37,2015-06-02 19:13:00,
2015-06-02 15:18:00,48.9,47.2,29.95,SE,137,0.0,0.0,94,0.00,CLR,,0.01,WeatherDisplay:10.37,2015-06-02 19:18:00,
2015-06-02 15:23:00,48.8,47.2,29.95,ESE,116,0.0,0.0,94,0.00,CLR,,0.01,WeatherDisplay:10.37,2015-06-02 19:23:00,
2015-06-02 15:28:00,48.6,47.0,29.95,ESE,116,0.0,0.0,94,0.00,CLR,,0.01,WeatherDisplay:10.37,2015-06-02 19:28:00,
2015-06-02 15:33:00,48.8,47.2,29.95,NW,315,0.0,0.0,94,0.00,CLR,,0.01,WeatherDisplay:10.37,2015-06-02 19:33:00,
2015-06-02 15:38:00,49.1,47.4,29.95,NW,315,0.0,0.0,94,0.00,CLR,,0.01,WeatherDisplay:10.37,2015-06-02 19:38:00,
2015-06-02 15:43:00,49.2,47.5,29.95,ESE,117,0.0,3.5,94,0.00,CLR,,0.01,WeatherDisplay:10.37,2015-06-02 19:43:00,
2015-06-02 15:48:00,49.4,47.7,29.95,ESE,117,0.0,0.0,94,0.00,CLR,,0.01,WeatherDisplay:10.37,2015-06-02 19:48:00,
2015-06-02 15:53:00,49.5,47.8,29.94,ESE,112,0.0,0.0,94,0.00,CLR,,0.01,WeatherDisplay:10.37,2015-06-02 19:53:00,
2015-06-02 15:58:00,49.5,47.8,29.95,ESE,112,0.0,0.0,94,0.00,CLR,,0.01,WeatherDisplay:10.37,2015-06-02 19:58:00,
2015-06-02 16:03:00,49.6,47.9,29.94,East,99,0.0,0.0,94,0.00,CLR,,0.01,WeatherDisplay:10.37,2015-06-02 20:03:00,
2015-06-02 16:08:00,49.5,47.6,29.94,ENE,78,0.0,0.0,93,0.00,CLR,,0.01,WeatherDisplay:10.37,2015-06-02 20:08:00,
2015-06-02 16:13:00,49.2,47.3,29.94,East,79,0.0,0.0,93,0.00,CLR,,0.01,WeatherDisplay:10.37,2015-06-02 20:13:00,
2015-06-02 16:18:00,49.1,47.2,29.94,East,79,0.0,0.0,93,0.00,CLR,,0.01,WeatherDisplay:10.37,2015-06-02 20:18:00,
2015-06-02 16:24:00,48.9,47.0,29.94,ENE,65,0.0,0.0,93,0.00,CLR,,0.01,WeatherDisplay:10.37,2015-06-02 20:24:00,
2015-06-02 16:28:00,48.8,46.9,29.94,ENE,65,0.0,0.0,93,0.00,CLR,,0.01,WeatherDisplay:10.37,2015-06-02 20:28:00,
2015-06-02 16:34:00,48.8,46.9,29.94,ENE,65,0.0,0.0,93,0.00,CLR,,0.01,WeatherDisplay:10.37,2015-06-02 20:34:00,
2015-06-02 16:39:00,48.6,46.7,29.94,ENE,65,0.0,0.0,93,0.00,CLR,,0.01,WeatherDisplay:10.37,2015-06-02 20:39:00,
2015-06-02 16:44:00,48.6,46.7,29.94,ENE,65,0.0,0.0,93,0.00,CLR,,0.01,WeatherDisplay:10.37,2015-06-02 20:44:00,
2015-06-02 16:49:00,48.8,46.9,29.94,ENE,65,0.0,0.0,93,0.00,CLR,,0.01,WeatherDisplay:10.37,2015-06-02 20:49:00,
2015-06-02 16:54:00,48.9,47.0,29.94,ENE,65,0.0,0.0,93,0.00,CLR,,0.01,WeatherDisplay:10.37,2015-06-02 20:54:00,
2015-06-02 16:59:00,49.2,47.3,29.94,NW,313,0.0,0.0,93,0.00,CLR,,0.01,WeatherDisplay:10.37,2015-06-02 20:59:00,
2015-06-02 17:04:00,49.2,47.3,29.94,North,0,0.0,0.0,93,0.00,CLR,,0.01,WeatherDisplay:10.37,2015-06-02 21:04:00,
2015-06-02 17:09:00,49.2,47.3,29.94,North,0,0.0,0.0,93,0.00,CLR,,0.01,WeatherDisplay:10.37,2015-06-02 21:09:00,
2015-06-02 17:14:00,49.2,47.3,29.94,North,0,0.0,0.0,93,0.00,CLR,,0.01,WeatherDisplay:10.37,2015-06-02 21:14:00,
2015-06-02 17:19:00,49.1,46.9,29.94,North,0,0.0,0.0,92,0.00,CLR,,0.01,WeatherDisplay:10.37,2015-06-02 21:19:00,
2015-06-02 17:24:00,48.9,46.7,29.94,North,0,0.0,0.0,92,0.00,CLR,,0.01,WeatherDisplay:10.37,2015-06-02 21:24:00,
2015-06-02 17:29:00,48.9,46.7,29.94,North,0,0.0,0.0,92,0.00,CLR,,0.01,WeatherDisplay:10.37,2015-06-02 21:29:00,
2015-06-02 17:34:00,48.9,46.7,29.94,North,0,0.0,0.0,92,0.00,CLR,,0.01,WeatherDisplay:10.37,2015-06-02 21:34:00,
2015-06-02 17:39:00,48.9,46.7,29.94,SSE,148,0.3,2.3,92,0.00,CLR,,0.01,WeatherDisplay:10.37,2015-06-02 21:39:00,
2015-06-02 17:44:00,48.9,46.7,29.94,ENE,65,0.0,0.0,92,0.00,CLR,,0.01,WeatherDisplay:10.37,2015-06-02 21:44:00,
2015-06-02 17:49:00,48.9,46.7,29.95,East,95,0.0,0.0,92,0.00,CLR,,0.01,WeatherDisplay:10.37,2015-06-02 21:49:00,
2015-06-02 17:54:00,48.9,46.7,29.95,ESE,102,0.0,0.0,92,0.00,CLR,,0.01,WeatherDisplay:10.37,2015-06-02 21:54:00,
2015-06-02 17:59:00,48.9,46.7,29.94,East,100,0.0,0.0,92,0.00,CLR,,0.01,WeatherDisplay:10.37,2015-06-02 21:59:00,
2015-06-02 18:04:00,48.9,46.7,29.94,East,100,0.0,0.0,92,0.00,CLR,,0.01,WeatherDisplay:10.37,2015-06-02 22:04:00,
2015-06-02 18:09:00,48.8,46.6,29.95,East,100,0.0,0.0,92,0.00,CLR,,0.01,WeatherDisplay:10.37,2015-06-02 22:09:00,
2015-06-02 18:14:00,48.9,46.7,29.95,East,100,0.0,0.0,92,0.00,CLR,,0.01,WeatherDisplay:10.37,2015-06-02 22:14:00,
2015-06-02 18:19:00,48.8,46.6,29.95,East,100,0.0,0.0,92,0.00,CLR,,0.01,WeatherDisplay:10.37,2015-06-02 22:19:00,
2015-06-02 18:24:00,48.8,46.6,29.95,East,100,0.0,0.0,92,0.00,CLR,,0.01,WeatherDisplay:10.37,2015-06-02 22:24:00,
2015-06-02 18:29:00,48.8,46.6,29.95,East,100,0.0,0.0,92,0.00,CLR,,0.01,WeatherDisplay:10.37,2015-06-02 22:29:00,
2015-06-02 18:34:00,48.9,46.7,29.95,East,100,0.0,0.0,92,0.00,CLR,,0.01,WeatherDisplay:10.37,2015-06-02 22:34:00,
2015-06-02 18:39:00,48.9,46.7,29.95,East,100,0.0,0.0,92,0.00,CLR,,0.01,WeatherDisplay:10.37,2015-06-02 22:39:00,
2015-06-02 18:44:00,49.1,46.9,29.95,East,100,0.0,0.0,92,0.00,CLR,,0.01,WeatherDisplay:10.37,2015-06-02 22:44:00,
2015-06-02 18:49:00,49.1,46.9,29.95,East,100,0.0,0.0,92,0.00,CLR,,0.01,WeatherDisplay:10.37,2015-06-02 22:49:00,
2015-06-02 18:54:00,49.1,46.9,29.95,East,100,0.0,0.0,92,0.00,CLR,,0.01,WeatherDisplay:10.37,2015-06-02 22:54:00,
2015-06-02 18:59:00,49.1,46.9,29.95,East,100,0.0,0.0,92,0.00,CLR,,0.01,WeatherDisplay:10.37,2015-06-02 22:59:00,
2015-06-02 19:04:00,49.1,46.9,29.95,East,100,0.0,0.0,92,0.00,CLR,,0.01,WeatherDisplay:10.37,2015-06-02 23:04:00,
2015-06-02 19:09:00,49.1,46.9,29.95,East,100,0.0,0.0,92,0.00,CLR,,0.01,WeatherDisplay:10.37,2015-06-02 23:09:00,
2015-06-02 19:14:00,49.1,46.9,29.95,East,100,0.0,0.0,92,0.00,CLR,,0.01,WeatherDisplay:10.37,2015-06-02 23:14:00,
2015-06-02 19:19:00,49.1,46.9,29.95,ESE,102,0.0,0.0,92,0.00,CLR,,0.01,WeatherDisplay:10.37,2015-06-02 23:19:00,
2015-06-02 19:24:00,48.9,46.7,29.95,East,100,0.0,0.0,92,0.00,CLR,,0.01,WeatherDisplay:10.37,2015-06-02 23:24:00,
2015-06-02 19:29:00,48.9,46.7,29.96,East,100,0.0,0.0,92,0.00,CLR,,0.01,WeatherDisplay:10.37,2015-06-02 23:29:00,
2015-06-02 19:34:00,48.9,46.7,29.95,East,100,0.0,0.0,92,0.00,CLR,,0.01,WeatherDisplay:10.37,2015-06-02 23:34:00,
2015-06-02 19:39:00,48.9,46.7,29.95,East,100,0.0,0.0,92,0.00,CLR,,0.01,WeatherDisplay:10.37,2015-06-02 23:39:00,
2015-06-02 19:44:00,48.8,46.6,29.95,East,100,0.0,0.0,92,0.00,CLR,,0.01,WeatherDisplay:10.37,2015-06-02 23:44:00,
2015-06-02 19:49:00,48.8,46.6,29.95,East,100,0.0,0.0,92,0.00,CLR,,0.01,WeatherDisplay:10.37,2015-06-02 23:49:00,
2015-06-02 19:54:00,48.8,46.6,29.95,East,100,0.0,0.0,92,0.00,CLR,,0.01,WeatherDisplay:10.37,2015-06-02 23:54:00,
2015-06-02 19:59:00,48.6,46.4,29.95,East,100,0.0,0.0,92,0.00,CLR,,0.01,WeatherDisplay:10.37,2015-06-02 23:59:00,
2015-06-02 20:04:00,48.5,46.0,29.96,East,100,0.0,0.0,91,0.00,CLR,,0.01,WeatherDisplay:10.37,2015-06-03 00:04:00,
2015-06-02 20:09:00,48.3,45.8,29.96,East,100,0.0,0.0,91,0.00,CLR,,0.01,WeatherDisplay:10.37,2015-06-03 00:09:00,
2015-06-02 20:14:00,48.3,45.8,29.96,East,100,0.0,0.0,91,0.00,CLR,,0.01,WeatherDisplay:10.37,2015-06-03 00:14:00,
2015-06-02 20:19:00,48.2,45.7,29.96,East,100,0.0,0.0,91,0.00,CLR,,0.01,WeatherDisplay:10.37,2015-06-03 00:19:00,
2015-06-02 20:24:00,48.2,45.7,29.95,East,100,0.0,0.0,91,0.00,CLR,,0.01,WeatherDisplay:10.37,2015-06-03 00:24:00,
2015-06-02 20:29:00,48.2,45.7,29.96,East,100,0.0,0.0,91,0.00,CLR,,0.01,WeatherDisplay:10.37,2015-06-03 00:29:00,
2015-06-02 20:34:00,48.0,45.5,29.96,East,100,0.0,0.0,91,0.00,CLR,,0.01,WeatherDisplay:10.37,2015-06-03 00:34:00,
2015-06-02 20:39:00,48.0,45.5,29.95,East,100,0.0,0.0,91,0.00,CLR,,0.01,WeatherDisplay:10.37,2015-06-03 00:39:00,
2015-06-02 20:44:00,48.0,45.5,29.95,East,100,0.0,0.0,91,0.00,CLR,,0.01,WeatherDisplay:10.37,2015-06-03 00:44:00,
2015-06-02 20:49:00,47.9,45.4,29.95,East,100,0.0,0.0,91,0.00,CLR,,0.01,WeatherDisplay:10.37,2015-06-03 00:49:00,
2015-06-02 20:54:00,47.7,45.2,29.95,East,100,0.0,0.0,91,0.00,CLR,,0.01,WeatherDisplay:10.37,2015-06-03 00:54:00,
2015-06-02 20:59:00,47.6,45.1,29.96,East,100,0.0,0.0,91,0.00,CLR,,0.01,WeatherDisplay:10.37,2015-06-03 00:59:00,
2015-06-02 21:04:00,47.4,44.9,29.96,East,100,0.0,0.0,91,0.00,CLR,,0.01,WeatherDisplay:10.37,2015-06-03 01:04:00,
2015-06-02 21:09:00,47.3,44.8,29.96,East,100,0.0,0.0,91,0.00,CLR,,0.01,WeatherDisplay:10.37,2015-06-03 01:09:00,
2015-06-02 21:14:00,47.1,44.6,29.96,East,100,0.0,0.0,91,0.00,CLR,,0.01,WeatherDisplay:10.37,2015-06-03 01:14:00,
2015-06-02 21:19:00,47.0,44.5,29.97,East,100,0.0,0.0,91,0.00,CLR,,0.01,WeatherDisplay:10.37,2015-06-03 01:19:00,
2015-06-02 21:24:00,46.8,44.3,29.97,East,100,0.0,0.0,91,0.00,CLR,,0.01,WeatherDisplay:10.37,2015-06-03 01:24:00,
2015-06-02 21:29:00,46.7,44.2,29.97,East,100,0.0,0.0,91,0.00,CLR,,0.01,WeatherDisplay:10.37,2015-06-03 01:29:00,
2015-06-02 21:39:00,46.4,43.9,29.97,East,100,0.0,0.0,91,0.00,CLR,,0.01,WeatherDisplay:10.37,2015-06-03 01:39:00,
2015-06-02 21:44:00,46.2,43.7,29.97,East,100,0.0,0.0,91,0.00,CLR,,0.01,WeatherDisplay:10.37,2015-06-03 01:44:00,
2015-06-02 21:50:00,46.1,43.6,29.97,East,100,0.0,0.0,91,0.00,CLR,,0.01,WeatherDisplay:10.37,2015-06-03 01:50:00,
2015-06-02 21:55:00,46.0,43.5,29.97,East,100,0.0,0.0,91,0.00,CLR,,0.01,WeatherDisplay:10.37,2015-06-03 01:55:00,
2015-06-02 22:00:00,45.8,43.3,29.97,East,100,0.0,0.0,91,0.00,CLR,,0.01,WeatherDisplay:10.37,2015-06-03 02:00:00,
2015-06-02 22:05:00,45.7,43.2,29.97,East,100,0.0,0.0,91,0.00,CLR,,0.01,WeatherDisplay:10.37,2015-06-03 02:05:00,
2015-06-02 22:10:00,45.7,43.2,29.97,East,100,0.0,0.0,91,0.00,CLR,,0.01,WeatherDisplay:10.37,2015-06-03 02:10:00,
2015-06-02 22:15:00,45.7,43.5,29.97,East,100,0.0,0.0,92,0.00,CLR,,0.01,WeatherDisplay:10.37,2015-06-03 02:15:00,
2015-06-02 22:20:00,45.5,43.3,29.97,East,100,0.0,0.0,92,0.00,CLR,,0.01,WeatherDisplay:10.37,2015-06-03 02:20:00,
2015-06-02 22:25:00,45.5,43.3,29.97,East,100,0.0,0.0,92,0.00,CLR,,0.01,WeatherDisplay:10.37,2015-06-03 02:25:00,
2015-06-02 22:30:00,45.5,43.3,29.97,East,100,0.0,0.0,92,0.00,CLR,,0.01,WeatherDisplay:10.37,2015-06-03 02:30:00,
2015-06-02 22:35:00,45.7,43.5,29.97,East,100,0.0,0.0,92,0.00,CLR,,0.01,WeatherDisplay:10.37,2015-06-03 02:35:00,
2015-06-02 22:40:00,45.7,43.5,29.97,East,100,0.0,0.0,92,0.00,CLR,,0.01,WeatherDisplay:10.37,2015-06-03 02:40:00,
2015-06-02 22:45:00,45.7,43.5,29.97,East,100,0.0,0.0,92,0.00,CLR,,0.01,WeatherDisplay:10.37,2015-06-03 02:45:00,